{"data":{"norad_id":65334,"intl_designator":"2025-189M","name":"STARLINK-34878","alt_names":[],"object_type":"PAYLOAD","status":"ACTIVE","operator":null,"country":"US","launch_date":"2025-08-27","launch_site_code":"AFETR","launch_vehicle":null,"mission":null,"orbit_class":"UNKNOWN","rcs_meters":null,"size_class":null,"mass_kg":null,"dimensions":null,"purposes":["comms"],"wikipedia_slug":null,"has_3d_model":false,"image_url":null,"decayed_at":null,"tle_current":{"epoch":"2026-05-25T04:53:20.067072Z","epoch_age_seconds":51292,"freshness":"FRESH","line1":"1 65334U 25189M   26145.20370448  .00017711  00000+0  60852-3 0  9992","line2":"2 65334  53.1570 211.1884 0001050  79.9710 280.1409 15.30208654 42822","mean_motion":15.30208654,"eccentricity":0.000105,"inclination_deg":53.157,"raan_deg":211.1884,"arg_perigee_deg":79.971,"mean_anomaly_deg":280.1409,"bstar":0.00060852,"rev_number":4282,"period_min":94.104813499506,"perigee_km":474.46963100282,"apogee_km":475.90882951117,"semimajor_km":6853.326230257,"source":"CELESTRAK","updated_at":"2026-05-25T13:38:20.760327Z"}}}